Wind_Speed
80 79 96 84 85 69 59 53 46 29 21 18 22 32 42 49 59 65 70 71 72 76 78 80 79 77 71 70 70 65 65 62 60 52 52 58 61 66 68 64 61 60 55 50
94 80 90 85 85 71 60 55 51 34 25 19 21 27 38 47 56 65 70 72 72 73 76 79 79 79 78 71 71 73 70 64 61 55 54 55 45 54 70 70 66 65 64 62
79 76 89 88 84 71 61 56 53 38 31 21 21 25 37 43 50 61 68 70 72 72 75 77 77 79 79 77 73 71 72 72 68 62 57 54 55 67 69 69 61 61 68 68
92 89 89 84 83 75 65 58 55 41 38 27 18 24 30 41 45 53 66 69 71 74 73 76 77 76 80 78 76 75 72 71 72 64 63 59 57 55 59 60 62 41 54 56
91 89 83 80 78 75 67 60 56 45 39 32 18 21 28 36 44 47 58 69 72 73 74 75 77 77 77 80 80 77 76 74 74 75 68 66 60 64 58 53 59 57 54 51
83 78 80 74 72 73 67 61 58 50 42 36 21 15 23 30 40 47 50 62 69 71 73 75 77 78 77 77 80 80 80 77 77 77 77 73 73 72 69 63 70 66 65 54
73 74 74 70 69 70 66 61 58 53 41 37 23 13 16 24 33 41 48 52 64 70 70 73 76 78 79 77 77 80 80 80 79 78 78 80 79 77 78 78 68 76 71 63
70 72 73 67 66 68 64 61 57 54 42 37 27 13 13 17 26 35 42 48 52 63 70 72 74 77 80 81 81 79 81 82 82 82 81 80 82 81 81 81 77 77 78 77
67 68 70 64 63 64 63 59 57 55 43 38 31 18 10 13 19 27 34 40 46 51 60 71 73 76 78 81 82 83 81 81 84 86 86 84 82 83 85 86 85 84 85 90
63 68 65 61 59 61 62 57 55 52 42 36 30 21 13 9 13 19 27 35 40 44 48 54 67 75 75 77 80 82 84 85 84 86 88 89 89 88 88 90 88 88 88 84
62 63 63 57 55 55 59 57 53 49 39 34 28 22 14 9 7 11 17 25 33 38 42 46 49 56 70 78 79 80 84 86 86 87 89 93 93 94 94 93 92 93 91 88
62 59 61 56 54 54 56 56 52 47 37 31 24 21 14 8 6 5 4 10 16 23 33 39 43 46 54 63 71 78 82 83 85 91 93 94 98 99 98 99 97 97 95 94
60 59 60 54 53 52 55 52 51 46 36 29 23 18 15 13 9 6 3 5 5 6 10 19 24 33 42 50 56 64 71 77 84 88 90 96 99 100 103 104 104 102 99 97
72 57 55 51 51 49 51 51 49 46 35 27 22 18 16 13 10 9 5 7 7 7 9 9 11 15 21 29 38 48 56 63 71 79 88 96 98 102 107 106 106 104 102 101
64 53 51 50 50 48 50 52 46 47 39 28 22 19 16 16 15 17 15 12 13 13 13 12 13 16 15 19 22 30 38 46 54 64 75 86 96 103 102 103 104 103 101 100
62 48 48 48 50 48 45 50 47 44 40 34 26 20 18 16 19 21 23 22 21 20 20 18 19 19 19 19 19 18 18 21 26 38 52 69 80 82 91 102 103 99 103 100
55 44 41 43 47 46 43 48 49 42 40 35 29 22 18 18 19 22 24 27 28 27 25 23 24 22 18 13 15 16 20 21 25 32 42 44 45 58 64 69 82 97 102 100
48 42 38 39 43 47 40 45 47 45 41 38 30 26 20 17 17 20 21 22 27 29 27 29 27 25 16 15 10 14 19 22 28 31 40 29 25 32 46 56 63 74 86 98
44 37 37 37 41 47 39 40 45 48 42 40 38 28 22 17 15 15 18 20 24 26 26 29 28 27 24 16 11 12 17 17 22 25 30 18 15 21 24 33 43 52 68 78
41 35 36 36 37 43 39 35 41 44 48 39 39 37 27 22 18 15 15 15 16 17 19 20 22 23 21 23 16 15 11 15 16 20 27 19 11 10 15 23 31 43 53 64
41 32 33 35 36 40 41 33 36 39 43 45 40 40 38 30 20 17 16 16 14 14 14 12 13 15 17 18 15 16 14 9 13 15 17 24 25 16 5 5 13 20 30 40
41 34 30 32 34 38 41 35 33 37 37 42 40 36 38 39 32 22 19 14 10 11 10 11 13 14 13 13 12 12 11 13 16 16 15 16 17 21 21 19 15 9 7 16
41 37 30 29 33 37 40 39 33 35 35 36 41 36 34 36 38 33 26 22 17 13 11 11 10 10 9 7 7 10 12 14 13 13 13 17 19 19 17 14 12 9 6 6
43 38 37 31 27 36 38 39 39 33 32 33 35 39 36 32 33 34 36 34 32 28 25 23 19 18 17 16 15 14 13 12 10 9 10 11 11 11 12 14 17 18 19 20
46 41 39 37 28 33 36 40 40 33 31 31 31 33 36 37 32 30 29 30 29 28 26 30 32 29 29 30 28 24 23 18 16 15 13 12 11 11 10 12 14 17 20 23
47 43 39 42 34 31 35 37 41 38 32 28 29 30 33 34 36 35 32 29 28 29 29 27 27 28 27 28 27 28 29 28 27 25 22 21 21 21 20 18 16 13 10 8
Wind_Direction
352 350 349 350 355 351 347 348 346 344 326 284 257 236 234 226 224 224 225 225 225 227 229 231 226 224 222 226 225 227 233 232 230 229 234 233 237 237 240 243 242 244 245 251
352 348 346 351 354 352 349 350 348 348 337 300 261 242 232 228 225 223 225 226 225 226 228 230 230 225 226 224 226 226 229 232 233 234 226 235 220 250 239 242 244 248 248 249
344 345 346 352 351 352 350 350 350 349 343 317 271 243 233 228 225 222 223 226 227 227 227 230 231 229 225 227 225 228 230 231 231 235 237 236 233 232 242 240 247 253 250 253
352 353 346 350 348 349 350 349 351 352 348 332 284 247 233 229 225 223 222 225 227 226 227 228 230 230 229 227 227 228 229 231 233 232 235 235 234 220 237 239 237 246 251 256
347 341 345 348 347 346 348 347 350 354 354 341 304 249 234 228 226 223 223 224 226 227 227 227 229 230 230 230 228 228 230 230 232 233 230 232 232 224 228 228 225 232 243 250
339 340 344 345 345 344 346 345 350 354 355 346 321 253 239 229 227 225 224 225 226 228 228 228 229 231 233 229 231 230 230 231 232 235 234 230 229 225 232 236 229 230 239 241
334 337 343 346 344 342 345 344 347 350 353 348 331 281 249 239 232 229 226 227 227 228 230 230 230 231 233 236 231 232 233 233 232 234 237 237 235 234 234 235 236 233 234 239
331 336 341 346 343 341 344 343 347 346 353 346 338 308 258 243 234 231 229 227 228 228 229 232 232 232 233 233 237 234 232 234 234 234 235 237 238 239 240 239 236 228 232 236
333 334 340 344 341 340 341 343 345 346 346 346 340 335 291 248 234 232 234 230 228 229 229 230 233 234 234 236 237 238 239 236 235 236 235 235 238 239 240 241 241 240 237 239
330 333 339 342 341 340 342 342 346 345 343 342 338 336 337 290 249 237 232 234 233 230 230 232 233 235 237 238 239 240 240 241 239 237 237 238 237 239 240 241 242 243 244 245
331 335 338 341 341 340 341 343 345 343 340 338 335 332 335 330 289 250 237 233 233 236 237 236 235 234 235 237 240 242 242 243 244 242 240 240 240 241 241 243 243 243 244 244
332 337 339 340 339 340 343 345 344 345 339 335 330 327 324 329 328 325 266 236 234 235 238 240 240 241 239 238 240 241 242 242 243 244 243 241 240 241 241 241 242 243 243 244
339 340 339 338 339 343 344 349 346 347 339 331 327 321 312 309 317 312 314 249 242 244 232 239 242 244 246 244 242 242 242 243 243 242 243 244 243 242 242 242 242 242 243 243
337 337 338 337 337 340 346 353 351 350 345 336 323 317 299 290 283 271 260 233 196 199 223 225 255 267 259 248 248 248 248 247 246 244 244 243 243 243 242 242 242 243 244 244
335 333 338 336 337 339 348 356 356 355 350 341 329 320 297 272 265 251 253 245 225 220 228 244 260 284 273 275 265 253 250 250 250 251 249 247 245 245 245 245 242 242 244 245
330 329 337 336 335 338 351 357 0 358 355 347 333 321 307 284 257 252 253 241 245 258 253 274 282 291 314 304 295 296 309 296 280 267 260 253 253 250 249 247 246 245 242 241
325 328 336 335 334 337 352 355 3 358 358 354 341 327 314 300 276 259 252 248 249 251 261 263 272 292 299 277 284 291 308 312 305 301 288 292 249 247 251 248 246 244 243 243
320 326 335 333 335 336 347 356 0 2 3 6 354 338 325 311 296 274 266 259 260 263 266 266 270 276 276 254 309 297 285 308 316 327 308 304 273 252 245 242 248 240 240 240
317 325 333 331 333 332 342 356 358 4 5 6 8 355 342 328 312 294 278 274 268 266 266 265 271 274 280 275 290 295 304 301 320 345 348 318 281 259 251 246 252 246 239 239
314 324 329 328 328 329 333 348 356 2 5 5 11 11 2 355 335 315 294 281 278 278 277 269 267 269 280 287 280 267 292 312 327 354 7 22 8 291 248 245 239 239 242 242
309 316 323 317 324 325 330 337 352 356 7 10 9 15 17 12 3 348 331 311 295 284 285 284 282 274 271 274 276 273 273 283 324 350 7 24 35 39 32 258 244 242 243 244
307 310 320 307 313 319 326 330 344 353 0 10 13 17 19 17 20 15 8 350 320 299 296 292 290 291 288 286 279 290 289 303 319 332 352 8 19 27 38 40 34 15 311 269
302 307 312 304 303 313 319 326 334 345 355 5 13 16 19 22 25 29 35 38 35 31 29 21 11 3 4 351 324 307 312 322 322 312 320 331 343 352 359 4 3 359 340 303
297 302 300 304 298 303 311 318 324 335 347 355 7 13 17 18 28 32 35 43 49 50 51 47 41 35 29 27 25 19 12 6 1 345 328 304 303 305 306 304 306 304 301 298
292 294 292 293 292 298 300 307 314 324 336 347 355 6 11 16 21 25 32 37 42 50 62 59 58 63 63 62 60 60 55 51 46 40 33 25 17 7 347 323 306 297 291 286
284 289 290 285 286 287 291 297 303 312 322 334 345 354 1 8 10 17 19 22 29 33 35 38 41 43 47 50 50 52 54 54 53 56 62 64 62 63 61 60 59 57 51 36
Height
10623 10608 10594 10578 10567 10554 10540 10531 10522 10515 10511 10511 10512 10515 10520 10527 10537 10546 10554 10564 10575 10584 10592 10600 10613 10625 10634 10643 10655 10658 10662 10676 10682 10689 10691 10699 10706 10709 10714 10718 10723 10726 10729 10733
10617 10602 10590 10574 10561 10549 10536 10526 10516 10508 10505 10502 10503 10505 10509 10515 10523 10533 10542 10552 10562 10572 10580 10588 10599 10612 10623 10630 10640 10647 10653 10662 10669 10677 10679 10688 10701 10697 10702 10705 10710 10714 10717 10719
10609 10594 10584 10569 10555 10544 10532 10522 10512 10502 10496 10495 10494 10496 10499 10504 10510 10519 10530 10540 10550 10559 10568 10577 10587 10598 10609 10619 10626 10635 10642 10650 10657 10662 10670 10678 10683 10686 10689 10694 10700 10702 10705 10706
10607 10592 10577 10562 10550 10538 10526 10517 10508 10498 10490 10486 10485 10485 10489 10495 10502 10508 10518 10527 10536 10546 10556 10565 10573 10584 10595 10605 10614 10621 10629 10637 10643 10650 10658 10666 10670 10672 10675 10680 10686 10687 10691 10691
10601 10588 10572 10557 10546 10534 10522 10513 10504 10494 10486 10480 10478 10478 10479 10484 10491 10498 10505 10514 10522 10532 10541 10551 10560 10568 10579 10590 10599 10608 10616 10623 10629 10637 10643 10649 10656 10661 10664 10671 10673 10676 10676 10677
10593 10583 10571 10557 10545 10532 10520 10511 10500 10490 10483 10476 10473 10473 10474 10476 10481 10489 10496 10502 10511 10519 10528 10537 10547 10555 10563 10575 10585 10594 10602 10609 10616 10621 10629 10635 10639 10646 10652 10655 10659 10663 10664 10666
10591 10579 10566 10554 10542 10530 10520 10508 10498 10489 10481 10475 10471 10469 10469 10470 10474 10481 10487 10493 10500 10509 10517 10525 10534 10543 10552 10560 10570 10579 10587 10594 10601 10607 10613 10620 10625 10631 10635 10639 10644 10649 10652 10654
10588 10579 10565 10551 10539 10528 10517 10506 10496 10487 10479 10474 10469 10465 10464 10464 10466 10470 10476 10484 10491 10498 10506 10513 10521 10529 10536 10545 10553 10561 10570 10577 10585 10591 10598 10604 10609 10615 10622 10624 10628 10634 10637 10641
10587 10576 10563 10550 10537 10526 10515 10504 10494 10483 10476 10471 10467 10463 10460 10459 10460 10463 10468 10474 10480 10486 10492 10499 10505 10513 10521 10529 10537 10545 10553 10561 10569 10575 10580 10586 10591 10596 10602 10605 10612 10618 10622 10625
10583 10572 10561 10549 10537 10523 10513 10502 10492 10483 10473 10469 10465 10460 10458 10456 10456 10458 10461 10465 10470 10477 10482 10487 10494 10502 10508 10515 10522 10528 10534 10541 10550 10557 10563 10567 10572 10577 10581 10587 10594 10599 10604 10610
10580 10570 10558 10547 10538 10525 10513 10500 10491 10481 10473 10467 10463 10459 10456 10454 10453 10454 10456 10458 10462 10467 10471 10476 10481 10486 10492 10497 10503 10510 10517 10523 10530 10538 10544 10549 10553 10558 10562 10567 10574 10581 10586 10593
10576 10567 10557 10545 10535 10524 10512 10499 10489 10480 10471 10465 10461 10457 10455 10455 10453 10453 10453 10454 10456 10460 10463 10466 10470 10474 10477 10482 10486 10491 10497 10502 10507 10513 10519 10524 10528 10534 10538 10544 10550 10556 10565 10573
10571 10565 10554 10544 10533 10522 10510 10499 10487 10478 10469 10463 10459 10456 10454 10452 10452 10452 10452 10453 10454 10456 10457 10459 10461 10463 10465 10468 10471 10474 10478 10481 10485 10489 10494 10497 10503 10510 10515 10519 10525 10532 10541 10551
10567 10561 10554 10543 10534 10524 10511 10499 10488 10477 10469 10462 10457 10454 10452 10451 10450 10450 10450 10451 10452 10453 10454 10456 10456 10457 10457 10458 10460 10461 10462 10464 10465 10467 10471 10472 10473 10477 10482 10492 10502 10512 10524 10531
10563 10557 10550 10542 10533 10524 10512 10499 10489 10478 10468 10461 10456 10452 10449 10448 10448 10448 10448 10448 10449 10449 10450 10451 10451 10452 10452 10451 10451 10451 10450 10450 10448 10448 10449 10449 10448 10450 10459 10467 10478 10490 10502 10510
10560 10553 10546 10540 10532 10524 10514 10501 10489 10481 10469 10460 10454 10449 10446 10444 10443 10443 10443 10444 10444 10444 10444 10443 10443 10443 10442 10441 10440 10439 10438 10437 10434 10432 10428 10426 10422 10423 10431 10440 10449 10467 10474 10486
10555 10551 10543 10537 10531 10523 10514 10503 10492 10482 10472 10460 10452 10447 10442 10438 10436 10436 10437 10439 10439 10439 10439 10439 10439 10438 10437 10435 10433 10432 10432 10428 10424 10417 10409 10402 10398 10398 10403 10413 10423 10434 10448 10462
10549 10546 10540 10535 10529 10523 10515 10504 10493 10483 10473 10462 10453 10445 10439 10435 10432 10431 10431 10431 10432 10433 10433 10433 10432 10432 10432 10431 10428 10427 10426 10422 10416 10405 10392 10387 10384 10385 10389 10391 10395 10411 10421 10435
10542 10539 10536 10531 10526 10520 10514 10505 10496 10485 10474 10465 10455 10445 10438 10433 10429 10426 10425 10424 10425 10425 10425 10424 10423 10423 10423 10423 10424 10422 10418 10416 10410 10402 10390 10382 10377 10378 10383 10387 10391 10398 10407 10417
10536 10534 10530 10527 10524 10519 10514 10506 10498 10488 10477 10467 10458 10448 10438 10432 10427 10424 10421 10419 10418 10418 10417 10417 10417 10416 10415 10414 10414 10413 10413 10409 10406 10399 10392 10384 10377 10375 10378 10382 10387 10392 10399 10406
10530 10528 10525 10521 10519 10516 10511 10505 10498 10491 10481 10470 10460 10451 10442 10434 10428 10424 10419 10416 10415 10414 10412 10411 10410 10409 10407 10406 10404 10402 10403 10403 10400 10397 10393 10386 10380 10378 10377 10380 10383 10387 10392 10397
10521 10520 10518 10516 10514 10511 10507 10502 10497 10491 10483 10475 10465 10456 10447 10439 10430 10423 10418 10415 10413 10411 10409 10407 10405 10404 10403 10401 10399 10397 10396 10394 10391 10389 10388 10386 10384 10381 10381 10382 10383 10386 10389 10392
10513 10512 10510 10510 10509 10507 10503 10499 10495 10490 10483 10477 10469 10461 10453 10445 10437 10428 10422 10417 10415 10412 10411 10409 10406 10404 10400 10398 10396 10395 10393 10391 10390 10390 10388 10386 10383 10383 10384 10386 10389 10390 10391 10393
10503 10503 10502 10503 10504 10501 10498 10495 10491 10488 10483 10477 10471 10464 10458 10452 10445 10438 10431 10424 10419 10416 10414 10411 10407 10405 10402 10400 10398 10396 10394 10391 10390 10388 10387 10387 10387 10388 10388 10388 10389 10389 10390 10391
10494 10494 10494 10494 10495 10494 10493 10489 10487 10485 10482 10476 10471 10465 10459 10455 10450 10444 10438 10433 10429 10425 10420 10416 10413 10410 10408 10405 10403 10400 10397 10394 10391 10389 10388 10387 10387 10386 10386 10386 10386 10386 10386 10386
10481 10483 10484 10483 10486 10487 10484 10483 10480 10479 10478 10474 10469 10464 10458 10453 10450 10445 10441 10436 10431 10427 10424 10421 10418 10414 10412 10409 10407 10404 10401 10399 10397 10395 10394 10393 10392 10390 10389 10388 10387 10386 10385 10383